Home   Weather   Zürich   Past weeks
Flag for Switzerland

Past Weather in Zürich, Zurich, Switzerland — Yesterday and Last 2 Weeks

Now
42 °F

Quite cool.


Feels Like: 38 °F
Forecast: 68 / 37 °F
Wind: 6 mph from Northeast

Location: Zuerich-Fluntern

Current Time: Apr 5, 2020 at 4:06:00 am

Latest Report: Apr 5, 2020 at 3:00 am


Visibility: N/A

Pressure: 30.22 "Hg

Humidity: 65%

Dew Point: 30 °F

Location of ZürichLocation

Past Weather in Zürich — Graph

°F

Zürich Temperature Yesterday

Maximum temperature yesterday: 59 °F (at 5:00 pm)
Minimum temperature yesterday: 36 °F (at 7:00 am)
Average temperature yesterday: 48 °F

High & Low Weather Summary for the Past Weeks

 TemperatureHumidityPressure
High60 °F (Mar 28, 4:00 pm)95% (Mar 29, 8:00 pm)30.43 "Hg (Mar 29, 8:00 pm)
Low26 °F (Mar 23, 7:00 am)26% (Mar 23, 4:00 pm)29.82 "Hg (Apr 2, 4:00 pm)
Average40 °F59%30.14 "Hg
* Reported Mar 21 1:00 am — Apr 5 2:00 am, Zürich. Weather by CustomWeather, © 2020

Note: Actual official high and low records may vary slightly from our data, if they occured in-between our weather recording intervals... More about our weather records

Zürich Weather History for the Previous 24 Hours

Scroll right to see more
 ConditionsComfort  
Time TempWeatherWind HumidityBarometerVisibility
2:00 am
Sun, Apr 5
43 °FQuite cool.7 mph60%30.22 "HgN/A
1:00 am43 °FQuite cool.3 mph58%30.22 "HgN/A
12:00 am48 °FCool.8 mph47%30.20 "HgN/A
11:00 pm
Sat, Apr 4
47 °FCool.6 mph46%30.20 "HgN/A
10:00 pm51 °FCool.6 mph40%30.19 "HgN/A
9:00 pm51 °FCool.6 mph40%30.18 "HgN/A
8:00 pm53 °FCool.5 mph37%30.15 "HgN/A
7:00 pm57 °FRefreshingly cool.5 mph33%30.13 "HgN/A
6:00 pm58 °FRefreshingly cool.6 mph29%30.12 "HgN/A
5:00 pm59 °FRefreshingly cool.5 mph31%30.12 "HgN/A
4:00 pm58 °FRefreshingly cool.8 mph31%30.14 "HgN/A
3:00 pm57 °FRefreshingly cool.7 mph34%30.15 "HgN/A
2:00 pm57 °FSunny.8 mph38%30.15 "HgN/A
1:00 pm54 °FCool.5 mph40%30.17 "HgN/A
12:00 pm52 °FCool.3 mph48%30.19 "HgN/A
11:00 am49 °FCool.3 mph57%30.20 "HgN/A
10:00 am44 °FQuite cool.5 mph62%30.22 "HgN/A
9:00 am42 °FQuite cool.2 mph66%30.22 "HgN/A
8:00 am38 °FChilly.2 mph75%30.21 "HgN/A
7:00 am36 °FChilly.2 mph79%30.21 "HgN/A
6:00 am36 °FChilly.5 mph77%30.19 "HgN/A
5:00 am38 °FChilly.5 mph73%30.18 "HgN/A
4:00 am39 °FChilly.5 mph69%30.17 "HgN/A
Weather by CustomWeather, © 2020

See weather overview

Advertising